This demonstration page uses our WeatherBlox Daily Observations layout. Learn more.

Left ArrowRight Arrow

36.19886, -115.1175

Hourly Observations for May 24, 2021

Temp ( °F °C ) Dew Point ( °F °C ) Humidity (%) Winds ( mph kmh ) Pressure ( in mb ) Visibility ( mi km ) Precip ( " mm )
12:53 am 00:53 Clear 70 21.1 21 -6.1 16 16 NNE 12 19 30.00 1016 10 16 N/A
1:53 am 01:53 Clear 71 21.7 28 -2.2 20 20 NW 15 24 29.99 1016 10 16 N/A
2:53 am 02:53 Clear 69 20.6 30 -1.1 23 23 NW 12 19 30.00 1016 10 16 N/A
3:53 am 03:53 Clear 68 20 30 -1.1 24 24 NNW 13 20 30.01 1016 10 16 N/A
4:53 am 04:53 Clear 67 19.4 32 undefined 27 27 NNW 17 28 30.01 1016 10 16 N/A
5:53 am 05:53 Sunny 64 17.8 32 undefined 30 30 N 10 17 30.04 1017 10 16 N/A
6:53 am 06:53 Sunny 68 20 32 undefined 26 26 N 9 15 30.06 1018 10 16 N/A
7:53 am 07:53 Sunny 71 21.7 29 -1.7 21 21 NNW 14 22 30.08 1019 10 16 N/A
8:53 am 08:53 Sunny 72 22.2 30 -1.1 21 21 NE 9 15 30.09 1019 10 16 N/A
9:53 am 09:53 Sunny 76 24.4 29 -1.7 18 18 NE 7 11 30.09 1019 10 16 N/A
10:53 am 10:53 Sunny 77 25 28 -2.2 16 16 ENE 9 15 30.07 1018 10 16 N/A
11:53 am 11:53 Sunny 79 26.1 27 -2.8 15 15 E 7 11 30.06 1018 10 16 N/A
12:53 pm 12:53 Sunny 82 27.8 27 -2.8 13 13 VRB 3 6 30.03 1017 10 16 N/A
1:53 pm 13:53 Sunny 82 27.8 27 -2.8 13 13 VRB 6 9 30.00 1016 10 16 N/A
2:53 pm 14:53 Sunny 84 28.9 25 -3.9 11 11 ESE 10 17 29.97 1015 10 16 N/A
3:53 pm 15:53 Sunny 86 30 24 -4.4 10 10 E 8 13 29.94 1014 10 16 N/A
4:53 pm 16:53 Sunny 86 30 23 -5 10 10 SE 9 15 29.93 1013 10 16 N/A
5:53 pm 17:53 Sunny 86 30 23 -5 10 10 VRB 3 6 29.91 1013 10 16 N/A
6:53 pm 18:53 Sunny 87 30.6 21 -6.1 9 9 N 6 9 29.90 1012 10 16 N/A
7:53 pm 19:53 Clear 84 28.9 21 -6.1 10 10 E 3 6 29.90 1013 10 16 N/A
8:53 pm 20:53 Clear 81 27.2 24 -4.4 12 12 SE 3 6 29.91 1013 10 16 N/A
9:53 pm 21:53 Clear 79 26.1 27 -2.8 15 15 W 3 6 29.93 1013 10 16 N/A
10:53 pm 22:53 Clear 77 25 28 -2.2 16 16 W 9 15 29.93 1013 10 16 N/A
11:53 pm 23:53 Clear 73 22.8 27 -2.8 18 18 NNW 8 13 29.92 1013 10 16 N/A

Powered by AerisWeather